Location: ???????????
(54.5822°N, 39.1075°E)
Time: 02:05:49
(UTC+00:00)

Cosmos 2016 Rocket - Pass Details

Date: 19 May 2025
Orbit: 946 x 999 km, 83.0° (Epoch: 14 June)

Event Time Altitude Azimuth Distance (km) Brightness Sun altitude
Rises 22:35:19 0° 347° (NNW) 3,640 8.1 -13.7°
Reaches altitude 10° 22:37:51 10° 343° (NNW) 2,695 7.2 -13.6°
Maximum altitude 22:43:51 58° 267° (W) 1,116 4.2 -13.3°
Enters shadow 22:48:31 18° 193° (SSW) 2,208 5.2 -13.1°
